Hourly Data Report for October 02, 2017

All times are specified in Local Standard Time (LST). Add 1 hour to adjust for Daylight Saving Time where and when it is observed.

PETAWAWA AWOS 2
ONTARIO

45°57'00.000" N
77°19'00.000" W
130.10 m
6106396
71625
YWA

Download Data

Hourly Data (October 2017)
Hourly Data Report for October 2, 2017
Temp Definition
°C
Dew Point Temp Definition
°C
Rel Hum Definition
%
Wind Dir Definition
10's deg

Wind Spd Definition
km/h
Visibility Definition
km
Stn Press Definition
kPa
Hmdx Definition


Wind Chill Definition


Weather Definition


TIME
00:00 4.0 3.6 97 27 4 14.5 101.16     LegendNANA
01:00 4.1 3.7 97 23 4 14.5 101.20     LegendNANA
02:00 4.5 4.2 98 28 6 14.5 101.22     LegendNANA
03:00 4.1 4.0 99   0 6.4 101.23     LegendNANA
04:00 4.2 3.7 96 28 4 14.5 101.30     LegendNANA
05:00
06:00
07:00 3.8 3.6 99 27 6 14.5 101.43     LegendNANA
08:00 6.9 5.9 93 30 6 14.5 101.46     LegendNANA
09:00 8.6 7.8 95   0 14.5 101.53     LegendNANA
10:00 10.8 9.1 89 8 4 14.5 101.51     LegendNANA
11:00 13.7 9.9 78 8 6 14.5 101.49     LegendNANA
12:00 16.8 9.8 63 12 9 14.5 101.46     LegendNANA
13:00 18.7 10.1 57 11 11 14.5 101.42     LegendNANA
14:00 19.0 9.8 55 11 11 14.5 101.39     LegendNANA
15:00 19.6 10.2 55 9 11 14.5 101.38     LegendNANA
16:00 18.7 9.0 53 13 9 14.5 101.35     LegendNANA
17:00 18.3 8.8 54 12 9 14.5 101.37     LegendNANA
18:00 16.2 10.4 68 10 6 14.5 101.39     LegendNANA
19:00 15.7 10.1 69 11 7 14.5 101.39     LegendNANA
20:00 15.3 10.9 75   0 14.5 101.46     LegendNANA
21:00 14.2 10.7 80 16 6 14.5 101.45     LegendNANA
22:00 13.9 10.5 80 14 6 14.5 101.47     LegendNANA
23:00 13.3 10.4 83 15 7 14.5 101.48     LegendNANA

Notes on Data Quality.

Legend

  • E = Estimated
  • M = Missing
  • NA = Not Available
  • ‡ = Partner data that is not subject to review by the National Climate Archives
Date modified: